GW1292 Weather Reports


Display with metric or nautical units.
time (UTC)temp
F
wind
direction
speed
MPH
gust
MPH
rain 1hr
in
rain 24hr
in
rain mn
in
humidity
%
barometer
mb
20260506001704 50 317 3.0 8.0 0.00 0.01 0.00 43 986.5
20260506001204 50 309 5.0 9.0 0.00 0.01 0.00 41 986.4
20260506000704 51 342 3.0 12.0 0.00 0.01 0.00 42 986.4
20260506000205 51 321 7.0 12.0 0.00 0.01 0.00 40 986.4
20260505234704 51 315 5.0 12.0 0.00 0.01 0.00 39 986.2
20260505234205 51 296 7.0 12.0 0.00 0.01 0.00 40 986.2
20260505233704 51 320 6.0 14.0 0.00 0.01 0.00 40 986.1
20260505233205 51 309 7.0 14.0 0.00 0.01 0.00 39 986.0
20260505231705 52 295 8.0 14.0 0.00 0.01 0.00 39 986.0
20260505231203 53 328 8.0 13.0 0.00 0.01 0.00 38 985.9
20260505230704 53 325 6.0 14.0 0.00 0.01 0.00 39 985.8
20260505224704 53 291 6.0 13.0 0.00 0.01 0.00 39 985.8
20260505224204 53 289 6.0 12.0 0.00 0.01 0.00 39 985.7
20260505223704 53 302 6.0 12.0 0.00 0.01 0.00 38 985.6
20260505223204 53 319 6.0 15.0 0.00 0.01 0.00 38 985.5
20260505221704 53 302 7.0 15.0 0.00 0.01 0.00 39 985.6
20260505221204 53 292 10.0 14.0 0.00 0.01 0.00 38 985.5
20260505220703 53 309 7.0 15.0 0.00 0.01 0.00 38 985.5
20260505220205 54 287 6.0 15.0 0.00 0.01 0.00 38 985.6
20260505214203 55 287 7.0 16.0 0.00 0.01 0.00 37 985.3
20260505213703 54 296 5.0 16.0 0.00 0.01 0.00 39 985.3
20260505213206 54 281 10.0 16.0 0.00 0.01 0.00 37 985.4
20260505211704 53 290 8.0 17.0 0.00 0.01 0.00 40 985.3
20260505211204 53 280 8.0 17.0 0.00 0.01 0.00 38 985.2
20260505210704 54 277 8.0 14.0 0.00 0.01 0.00 38 985.2
20260505210204 54 251 9.0 16.0 0.00 0.01 0.00 37 985.3
20260505204705 53 313 9.0 16.0 0.00 0.01 0.00 40 985.2
20260505203704 53 268 8.0 25.0 0.00 0.01 0.00 40 985.2
20260505203204 54 288 10.0 25.0 0.00 0.01 0.00 40 985.1
20260505201704 53 283 12.0 18.0 0.00 0.01 0.00 38 985.1
20260505201204 53 286 10.0 21.0 0.00 0.01 0.00 38 985.0
20260505200704 53 276 12.0 21.0 0.00 0.01 0.00 38 985.1
20260505200204 53 296 10.0 20.0 0.00 0.01 0.00 38 984.9
20260505194704 54 286 10.0 20.0 0.00 0.01 0.00 37 985.0
20260505194205 54 281 10.0 20.0 0.00 0.01 0.00 36 985.0
20260505193203 55 248 9.0 15.0 0.00 0.01 0.00 36 984.8
20260505191704 54 268 8.0 14.0 0.00 0.01 0.00 37 984.7
20260505191204 54 275 7.0 14.0 0.00 0.01 0.00 39 984.7
20260505184704 54 255 9.0 20.0 0.00 0.01 0.00 40 984.6
20260505184205 54 266 9.0 20.0 0.00 0.01 0.00 40 984.8
20260505183203 54 273 7.0 15.0 0.00 0.01 0.00 41 984.6
20260505181703 54 295 9.0 14.0 0.00 0.01 0.00 42 984.8
20260505181203 54 271 9.0 14.0 0.00 0.01 0.00 42 984.6
20260505180204 54 246 7.0 16.0 0.00 0.01 0.00 43 984.7
20260505174703 54 251 6.0 16.0 0.00 0.01 0.00 44 984.5
20260505173704 53 262 5.0 15.0 0.00 0.01 0.00 45 984.7
20260505171703 52 231 6.0 15.0 0.00 0.01 0.00 46 984.6
20260505170704 52 270 7.0 16.0 0.00 0.01 0.00 43 984.5
20260505164704 51 275 6.0 14.0 0.00 0.01 0.00 44 984.4
20260505164204 51 278 7.0 12.0 0.00 0.01 0.00 46 984.5
20260505163704 51 264 5.0 14.0 0.00 0.01 0.00 46 984.4
20260505163204 51 254 7.0 14.0 0.00 0.01 0.00 44 984.4
20260505161705 51 251 8.0 14.0 0.00 0.01 0.00 44 984.4
20260505161204 51 261 7.0 13.0 0.00 0.01 0.00 43 984.5
20260505160704 50 257 7.0 13.0 0.00 0.01 0.00 45 984.6
20260505160203 50 268 7.0 13.0 0.00 0.01 0.00 47 984.5
20260505153205 50 263 6.0 12.0 0.00 0.01 0.00 46 984.4
20260505151704 50 252 5.0 12.0 0.00 0.01 0.00 48 984.5
20260505151204 50 271 6.0 10.0 0.00 0.01 0.00 48 984.5
20260505150704 50 276 4.0 12.0 0.00 0.01 0.00 48 984.5
20260505150205 51 248 5.0 12.0 0.00 0.01 0.00 47 984.5
20260505140204 49 260 6.0 12.0 0.00 0.01 0.00 49 984.7
20260505130204 48 241 4.0 9.0 0.00 0.01 0.00 50 984.6
20260505124703 47 263 3.0 9.0 0.00 0.01 0.00 50 984.2
20260505124204 47 282 5.0 9.0 0.00 0.01 0.00 50 984.2
20260505123704 47 286 4.0 8.0 0.00 0.01 0.00 51 984.1
20260505123204 47 259 5.0 8.0 0.00 0.01 0.00 51 984.0
20260505121704 46 276 5.0 7.0 0.00 0.01 0.00 51 983.8
20260505121204 45 272 3.0 7.0 0.00 0.01 0.00 54 983.7
20260505120704 45 284 4.0 7.0 0.00 0.01 0.00 54 983.6
20260505120204 44 279 3.0 6.0 0.00 0.01 0.00 54 983.7
20260505114704 43 236 2.0 6.0 0.00 0.01 0.00 56 983.8
20260505113703 41 241 2.0 3.0 0.00 0.01 0.00 58 983.7
20260505113203 41 245 2.0 3.0 0.00 0.01 0.00 59 983.7
20260505111704 40 250 2.0 2.0 0.00 0.01 0.00 60 983.6
20260505111204 40 243 0.0 2.0 0.00 0.01 0.00 59 983.4
20260505110206 40 245 0.0 2.0 0.00 0.01 0.00 58 983.2
20260505031704 59 319 5.0 12.0 0.00 0.01 0.01 40 976.2
20260505031203 60 303 5.0 12.0 0.00 0.01 0.01 40 976.4
20260505030704 60 301 6.0 12.0 0.00 0.01 0.01 40 976.4
20260505024703 61 287 8.0 14.0 0.00 0.01 0.01 39 976.1
20260505024204 61 311 9.0 14.0 0.00 0.01 0.01 39 976.0
20260505023704 61 295 7.0 12.0 0.00 0.01 0.01 40 975.9
20260505023204 62 281 7.0 12.0 0.00 0.01 0.01 40 975.7
20260505021704 62 295 6.0 12.0 0.00 0.01 0.01 39 975.3
20260505020703 62 319 6.0 13.0 0.00 0.01 0.01 39 975.0
20260505020203 63 309 6.0 10.0 0.00 0.01 0.01 38 975.0
20260505014703 63 299 6.0 12.0 0.00 0.01 0.01 38 974.7
20260505014204 64 315 3.0 12.0 0.00 0.01 0.01 39 974.4
20260505013704 64 338 4.0 12.0 0.00 0.01 0.01 38 974.2
20260505013204 64 306 5.0 9.0 0.00 0.01 0.01 38 974.0
20260505011703 65 288 6.0 10.0 0.00 0.01 0.01 36 973.6
20260505011203 65 304 6.0 12.0 0.00 0.01 0.01 36 973.7
20260505010703 66 310 7.0 15.0 0.00 0.01 0.01 36 973.7
20260505010204 66 302 7.0 15.0 0.00 0.01 0.01 36 973.8
20260505004703 67 295 6.0 12.0 0.00 0.01 0.01 37 973.5
20260505004204 67 304 5.0 9.0 0.00 0.01 0.01 38 973.4
20260505003704 67 298 2.0 7.0 0.00 0.01 0.01 40 973.3
20260505003203 67 344 2.0 8.0 0.00 0.01 0.01 39 973.2